Location: Poigny-la-Forêt
(48.6876°N, 1.7701°E)
Time: 10:57:42
(UTC+02:00)

ISS - Pass Details

Date: 25 May 2019
Orbit: 408 x 418 km, 51.6° (Epoch: 19 June)

Event Time Altitude Azimuth Distance (km) Brightness Sun altitude
Rises 00:09:02 0° 285° (WNW) 2,359 0.6 -16.9°
Reaches altitude 10° 00:11:10 10° 290° (WNW) 1,497 -0.3 -17.1°
Maximum altitude 00:14:28 54° 9° (N) 517 -3.1 -17.3°
Enters shadow 00:16:56 16° 84° (E) 1,171 -1.7 -17.4°
